This is the latest recevied weather packets stored in our database for station/object AB0TJ. If no packets are shown the sender has not sent any weather packets the latest 10 day(s).
| Time | Temp. | Humidity | Pressure | Rain* | Wind** | Luminosity | Snow |
|---|---|---|---|---|---|---|---|
| 1777387546 | 8.89° C | 71% | 1018 hPa | 0 mm | - | 250 W/m² | - |
| 1777386964 | 8.33° C | 71% | 1016.8 hPa | 0 mm | - | 105 W/m² | - |
| 1777386384 | 7.78° C | 70% | 1016.8 hPa | 0 mm | - | 70 W/m² | - |
| 1777385904 | 7.78° C | 77% | 1016.7 hPa | 0 mm | - | 185 W/m² | - |
| 1777385349 | 7.22° C | 78% | 1016.6 hPa | 0 mm | - | 89 W/m² | - |
| 1777384829 | 7.22° C | 78% | 1017.2 hPa | 0 mm | - | 37 W/m² | - |
| 1777384314 | 6.67° C | 80% | 1016.4 hPa | 0 mm | - | 32 W/m² | - |
| 1777383799 | 6.11° C | 82% | 1016.2 hPa | 0 mm | - | 32 W/m² | - |
| 1777383244 | 6.11° C | 84% | 1016 hPa | 0 mm | - | 47 W/m² | - |
| 1777382654 | 5.56° C | 86% | 1017.4 hPa | 0 mm | - | 53 W/m² | - |
| 1777382059 | 5° C | 86% | 1017.3 hPa | 0 mm | - | 49 W/m² | - |
| 1777381579 | 5° C | 86% | 1017.1 hPa | 0 mm | - | 26 W/m² | - |
| 1777380979 | 4.44° C | 86% | 1017 hPa | 0 mm | - | 23 W/m² | - |
| 1777380463 | 4.44° C | 85% | 1016.3 hPa | 0 mm | - | 14 W/m² | - |
| 1777379954 | 4.44° C | 85% | 1016.4 hPa | 0 mm | - | 9 W/m² | - |
| 1777379424 | 4.44° C | 84% | 1016.5 hPa | 0 mm | - | 5 W/m² | - |
| 1777378854 | 4.44° C | 83% | 1016.2 hPa | 0 mm | - | 2 W/m² | - |
| 1777378364 | 4.44° C | 83% | 1016 hPa | 0 mm | - | 1 W/m² | - |
| 1777377827 | 4.44° C | 82% | 1016.1 hPa | 0 mm | - | 0 W/m² | - |
| 1777377284 | 5° C | 81% | 1015.6 hPa | 0 mm | - | 0 W/m² | - |
| 1777376797 | 5.56° C | 80% | 1015.8 hPa | 0 mm | - | 0 W/m² | - |
| 1777376219 | 5.56° C | 79% | 1015.3 hPa | 0 mm | - | 0 W/m² | - |
| 1777375634 | 5.56° C | 79% | 1015.4 hPa | 0 mm | - | 0 W/m² | - |
| 1777375150 | 6.11° C | 79% | 1015.4 hPa | 0 mm | - | 0 W/m² | - |
| 1777374651 | 6.11° C | 79% | 1015 hPa | 0 mm | - | 0 W/m² | - |
* Rain latest hour (hover to see other rain measurements)
** Current wind speed in m/s (hover to see current wind gust speed)